ORBCOMM FM 24

Satellite information

Favourite Embed

Satellite Type and Status

PAYLOADIN ORBIT

Key statistics

Satellite ORBCOMM FM 24 at a glance.

Uptime

9839

Days in orbit

Revolutions

≈ 14.4

Per day

Orbit

LEO

Low Earth Orbit

Inclination

45.0

Latest

Satellite identification and parameters

Extended collection of information and parameters for ORBCOMM FM 24.

Object identification

Identified? True

Debris? False

Object name: ORBCOMM FM 24

International designator: 1998-053D

Object number (NORAD): 25478

Object ID (CCSDS): 25478

Country: ORBITAL TELECOMMUNICATIONS SATELLITE (GLOBALSTAR) (ORB)

Current information (Y/N): Y

RCS size: MEDIUM

Orbital parameters

Period: 100.122 minutes

Inclination: 45.0075 deg

SMA: 7142.433 km

Apoapsis: 767.601 km

Periapsis: 760.994 km

RAAN: 275.4125 deg

Eccentricy: 0.00046249

Argument of periapsis: 253.7469 deg

Mean anomaly: 106.2871 deg

Mean motion: 14.38247148 rev/day

Mean motion (dot): 0.00001377 rev/day2

B* drag term: 0.00049518539 1/REarth

Two-line elements (TLE)

Creation date: Aug. 31, 2025, 2:26 a.m.

Reference frame: TEME

Reference center: EARTH

Epoch: Aug. 30, 2025, 6:33 p.m. UTC

TLE line 0: 0 ORBCOMM FM 24

TLE line 1: 1 25478U 98053D 25242.77347137 .00001377 00000-0 49519-3 0 9994

TLE line 2: 2 25478 45.0075 275.4125 0004625 253.7469 106.2871 14.38247148408186

Live tracking on map

Real-time ground track for satellite ORBCOMM FM 24.

In-orbit conjunctions

There are no conjunctions computed for ORBCOMM FM 24, at the moment. Check back to stay up to date, as we update our databases every day.

Go to all conjunctions

Associated space launch

ORBCOMM FM 24 was lifted into orbit during the mission ‘Pegasus XL HAPS | Orbcomm-C1 - C8’, on board a Pegasus XL HAPS space rocket.

The launch took place on Sept. 23, 1998, 5:06 a.m. from Wallops Flight Facility.

For more information about the launch, click the button.

Launch to space Pegasus XL HAPS | Orbcomm-C1 - C8
Pegasus XL HAPS | Orbcomm-C1 - C8

Agency: N/A

Status: Launch Successful

Launch date: Sept. 23, 1998, 5:06 a.m. UTC

Rocket: Pegasus XL HAPS

Launch pad: Wallops Flight Facility

Location: Air launch to orbit

...

Latest news about this satellite

There are no fresh news available about this satellite. Check back as we update our databases every day.


Newsletter sign-up

Weekly statistics, charts and insights to help you stay on top of the space industry.